GFSNE_prec_cloud_003.txt.gz
Cloud_Cover
65 92 97 100 100 100 100 100 100 100 100 100 100 100 42 60 31 0 0 0 0 0 0 4 5 5 15 100 100 100 100 100 95 47 5 0 0 0
99 100 98 96 100 100 100 100 97 98 100 100 100 100 78 57 33 34 3 2 0 0 5 2 2 0 2 4 84 92 58 100 71 69 16 5 0 0
84 91 93 100 100 100 100 100 100 100 100 100 100 100 100 74 98 73 98 95 14 5 5 2 4 0 0 0 0 8 5 6 27 5 62 5 5 0
98 100 100 100 93 100 100 100 100 100 100 100 100 100 100 100 100 100 98 16 99 100 100 78 0 0 0 0 0 0 0 1 5 5 5 5 5 4
48 72 98 100 100 100 100 100 100 100 100 100 100 100 100 100 98 61 91 100 100 100 72 25 0 0 0 0 0 0 0 0 0 4 5 5 5 5
100 100 100 100 100 100 100 100 100 100 100 100 100 100 100 100 52 95 100 100 100 74 49 4 0 3 0 0 0 0 0 0 0 2 0 2 1 5
95 100 60 95 100 98 100 100 100 100 100 100 100 100 100 100 100 100 100 5 2 100 0 0 16 0 0 0 0 0 2 0 0 0 0 0 0 0
60 100 95 85 95 100 100 100 100 100 100 100 100 100 100 100 100 100 16 5 0 0 0 0 0 0 0 0 0 0 0 0 0 0 0 0 0 0
100 100 72 51 90 99 86 100 100 100 100 100 100 100 100 88 2 2 4 0 0 0 0 0 0 0 0 0 0 0 0 0 0 0 0 0 0 0
80 81 8 8 41 56 100 95 95 100 100 97 100 100 61 6 2 1 0 0 0 0 19 6 0 0 0 0 0 0 0 0 0 0 0 15 0 0
100 15 30 62 96 100 98 100 100 100 100 58 44 0 0 0 3 0 0 0 0 2 0 0 0 0 0 0 0 0 0 7 75 0 8 15 98 2
25 6 5 11 7 6 5 5 5 4 11 3 15 16 0 0 0 0 0 78 84 18 0 0 0 0 3 74 86 1 26 62 91 52 12 45 21 66
5 5 45 5 16 5 32 4 0 12 0 0 0 0 82 43 26 37 47 28 0 0 1 2 0 15 66 100 100 100 99 100 99 82 94 97 87 100
4 7 28 94 4 32 42 0 0 0 3 3 9 89 47 2 0 0 0 0 0 0 16 18 44 35 99 100 100 100 100 100 100 84 100 100 95 40
22 33 5 9 5 11 1 0 4 6 40 46 92 11 0 0 0 0 5 0 0 0 62 67 82 100 100 100 100 100 100 100 100 100 100 100 100 91
26 0 0 0 0 9 1 10 80 52 39 21 0 0 0 0 0 0 5 0 0 4 30 34 100 100 100 100 100 100 100 100 100 100 100 88 99 70
0 19 6 15 34 78 71 100 100 100 26 0 0 0 0 0 0 0 0 0 2 5 50 100 100 100 100 100 95 100 100 100 100 100 100 100 95 100
0 0 2 38 92 100 100 100 82 57 12 1 0 0 0 0 0 0 0 0 4 11 73 100 100 100 100 100 100 100 100 100 100 100 100 100 100 90
0 0 10 19 49 27 14 14 6 5 5 5 5 0 0 4 0 0 0 0 5 10 97 100 100 100 100 100 100 100 100 100 100 100 100 100 100 100
9 48 88 86 98 81 13 5 5 5 5 5 5 1 0 0 0 0 0 0 0 63 100 100 100 100 100 100 100 100 100 100 100 100 100 95 85 100
88 96 99 78 11 4 0 5 5 5 5 2 0 0 0 0 0 0 0 0 0 70 93 100 100 100 100 95 99 100 100 100 100 100 100 100 100 100
100 98 5 5 3 0 5 4 0 0 0 0 0 0 0 0 0 0 0 0 1 79 72 100 100 100 100 99 100 100 100 100 100 100 100 100 100 100
42 21 6 2 0 0 0 0 0 0 0 0 0 0 0 0 0 0 0 0 1 26 44 100 100 100 100 100 100 100 100 100 100 100 100 100 100 100

GFSNE_prec_cloud_006.txt.gz
Cloud_Cover
8 5 81 100 100 100 100 100 100 100 30 98 100 100 100 100 100 100 100 30 10 3 4 4 0 0 5 5 90 100 100 100 100 100 100 100 77 5
93 38 26 30 43 62 98 95 100 100 100 100 100 100 100 100 100 100 100 100 88 8 41 72 3 0 0 1 1 46 100 100 93 97 95 100 100 64
2 5 5 19 5 6 59 95 87 100 100 100 100 100 100 100 100 100 100 100 100 96 96 35 0 0 1 52 3 0 0 77 90 23 97 97 36 100
6 5 54 96 100 100 100 80 99 100 100 100 100 100 100 100 100 100 100 100 100 98 12 5 40 17 91 0 0 0 0 0 15 24 5 34 18 6
0 31 5 34 100 100 98 14 37 100 100 100 100 100 100 100 100 100 100 100 100 76 26 35 100 99 5 2 0 0 0 0 0 2 5 2 5 5
0 99 5 13 59 35 96 86 50 100 100 100 100 100 100 100 96 100 100 100 100 100 100 100 100 100 20 0 0 0 0 0 0 0 0 2 3 2
28 100 28 11 73 92 36 99 93 99 98 94 100 100 100 100 100 100 100 100 100 100 100 100 32 1 0 0 0 0 0 0 0 0 0 0 0 0
76 100 7 37 100 88 92 32 28 5 7 60 96 100 100 100 100 100 100 100 100 100 22 100 0 0 0 0 0 0 0 6 100 13 0 0 0 0
99 100 74 69 100 87 19 35 68 92 98 21 62 100 100 100 100 100 100 100 79 16 0 0 0 10 0 0 0 0 35 64 0 0 0 0 0 0
11 85 82 100 100 7 31 59 83 100 69 20 19 46 95 87 70 48 4 1 0 0 0 0 0 0 0 0 0 0 0 0 0 0 0 0 0 0
97 98 47 33 48 46 12 5 5 3 4 5 49 99 68 7 0 0 0 0 4 0 0 0 0 5 0 0 0 0 0 0 0 0 0 23 90 80
87 14 13 5 5 5 27 86 26 5 4 2 0 3 0 0 0 16 0 0 0 0 0 0 0 0 0 0 0 0 0 73 100 48 5 67 95 100
2 4 79 23 4 32 100 36 4 4 0 0 0 0 0 2 82 100 23 0 0 0 0 0 0 0 55 97 67 1 19 100 100 67 91 100 100 100
4 40 54 12 5 2 39 5 38 4 0 0 0 0 3 99 52 2 0 0 0 0 0 2 0 10 86 43 21 14 14 100 67 98 80 100 100 100
24 44 32 5 5 4 0 0 0 0 0 0 0 36 63 5 0 0 0 0 0 0 0 0 22 48 100 40 63 83 100 100 100 100 100 100 100 100
2 5 5 5 0 4 0 0 0 0 5 5 5 5 5 5 2 0 0 0 0 0 0 0 50 8 8 65 71 100 81 100 100 100 100 97 100 100
3 0 0 0 0 0 61 100 100 100 100 83 28 12 3 0 0 0 0 0 0 0 1 1 3 92 6 75 100 99 67 100 100 100 100 100 100 100
0 0 0 0 43 100 100 100 100 100 96 14 5 5 5 3 0 4 5 0 0 0 0 81 50 100 98 54 93 100 64 100 100 100 100 100 100 100
0 0 0 29 64 63 91 99 100 52 2 5 5 5 5 0 0 0 0 0 0 1 7 100 6 100 100 100 65 100 100 100 100 100 100 100 100 100
0 0 1 30 8 47 51 5 3 0 5 5 2 0 0 0 0 0 0 0 0 0 2 4 26 98 100 100 100 100 100 71 100 100 100 100 100 100
8 100 100 4 0 1 5 5 3 2 0 0 0 0 0 0 0 0 0 0 0 0 0 0 57 100 100 100 99 80 12 58 98 100 100 100 100 94
1 22 55 4 4 5 3 0 0 0 0 0 0 0 0 0 0 0 0 0 0 0 0 0 46 100 97 100 98 65 42 42 62 96 100 100 100 100
7 27 4 14 0 0 0 0 0 0 0 0 0 0 0 0 0 0 0 0 0 0 0 1 47 87 93 100 100 100 34 99 100 89 100 100 100 100

GFSNE_prec_cloud_009.txt.gz
Cloud_Cover
0 0 0 0 5 5 5 18 91 75 72 91 56 100 100 100 80 99 100 100 100 100 100 99 28 92 100 92 0 2 89 100 100 100 99 100 87 100
0 0 0 0 0 5 91 12 5 31 34 20 8 12 100 100 100 100 100 100 100 100 100 100 99 92 16 73 39 4 0 5 100 100 100 93 87 12
0 0 0 0 2 4 8 94 41 75 6 14 5 5 10 87 100 100 100 100 100 91 66 24 66 86 99 89 46 76 5 0 0 26 100 100 8 5
0 2 10 1 81 5 5 62 89 56 21 5 30 94 85 98 100 100 100 100 100 100 100 100 100 100 100 95 4 1 1 0 1 0 0 82 81 4
0 80 100 54 71 6 12 82 58 35 43 41 66 22 18 98 41 69 80 97 100 100 100 100 100 100 100 100 100 100 21 6 44 5 53 1 22 76
1 70 100 94 66 82 30 99 100 100 100 100 32 24 5 5 45 33 44 46 98 94 100 100 100 100 100 97 88 89 51 100 100 76 0 0 0 19
2 74 100 100 70 94 20 88 100 100 100 78 91 5 5 5 12 79 81 100 93 73 19 100 100 100 100 98 54 57 61 2 0 0 0 0 0 0
1 88 100 100 11 97 27 100 100 100 96 56 96 61 7 6 5 5 5 5 59 100 100 100 99 100 100 67 60 100 100 87 0 0 0 0 0 0
48 97 83 100 18 79 79 93 95 57 58 78 36 5 6 7 5 5 4 3 25 36 5 5 4 1 2 0 0 0 0 0 0 0 0 0 0 0
86 100 77 58 100 100 90 99 100 100 78 8 5 39 14 3 0 0 0 0 0 0 0 3 0 0 0 0 0 0 0 0 0 0 0 0 0 0
100 100 86 62 100 38 39 72 88 97 35 23 38 5 0 3 5 0 0 0 0 0 0 0 0 0 0 0 0 0 0 0 0 0 0 0 0 0
41 5 72 100 15 54 5 5 13 90 60 5 5 3 3 36 1 0 1 1 55 5 5 0 4 0 0 0 0 0 0 0 0 0 0 0 0 4
95 59 17 58 52 33 7 5 6 43 31 5 0 0 0 0 0 3 36 83 12 8 0 0 0 0 0 0 1 0 0 0 0 5 0 1 6 13
8 1 34 40 53 27 17 5 5 0 0 0 0 0 0 3 69 82 46 35 36 5 1 0 0 0 0 0 10 4 0 25 0 2 25 84 91 65
1 35 98 60 17 5 4 0 0 0 0 0 2 5 79 76 46 16 21 2 0 0 0 0 0 0 12 5 6 1 5 94 4 17 6 99 100 100
8 37 14 4 0 0 0 0 0 0 4 5 4 5 11 69 65 3 0 0 0 0 0 0 0 0 9 37 86 91 5 41 18 8 100 100 100 100
3 0 0 0 0 0 0 0 0 6 3 0 4 5 5 5 5 5 5 0 0 0 2 0 0 18 26 7 0 4 6 100 100 67 81 100 100 100
0 0 0 0 1 5 5 0 0 2 2 2 4 5 3 0 1 0 0 0 0 0 0 3 0 0 4 3 5 20 99 100 100 86 100 100 100 100
0 0 0 0 0 1 4 32 0 0 1 1 5 1 0 0 0 0 0 0 0 0 0 0 0 0 4 5 12 100 100 100 100 100 100 100 100 100
5 17 0 0 0 0 0 0 0 0 0 0 0 0 0 0 0 0 0 0 0 0 0 0 0 0 5 25 53 68 100 100 100 100 100 100 100 100
3 0 0 19 21 2 0 0 0 0 0 0 0 0 0 0 0 0 0 0 0 0 0 0 0 2 22 61 70 40 68 100 100 98 100 100 100 100
0 0 0 86 51 0 0 1 1 0 0 0 0 0 0 0 0 0 0 0 0 0 0 0 1 4 70 100 100 100 100 100 91 77 100 100 100 100
2 0 9 51 16 0 0 0 0 0 0 0 0 0 0 0 0 0 0 0 0 0 0 0 5 1 40 100 100 100 100 63 64 100 92 100 100 100

GFSNE_prec_cloud_015.txt.gz
Cloud_Cover
8 98 24 5 5 0 0 5 2 5 18 83 16 5 5 1 0 4 5 5 6 8 10 84 100 100 100 62 100 100 100 100 80 84 100 100 100 100
12 98 11 11 5 5 0 3 5 2 5 43 81 63 23 5 5 5 5 5 5 5 5 9 5 14 58 100 100 100 100 100 100 99 73 65 100 97
8 77 68 25 6 37 4 2 4 5 5 90 47 5 6 5 5 5 5 5 5 5 5 33 7 5 5 5 51 100 100 100 100 100 100 12 12 86
100 100 7 9 5 20 12 2 5 5 5 5 12 100 27 74 11 5 5 5 5 5 5 5 5 5 5 5 6 77 82 100 100 100 100 100 100 90
100 100 76 100 43 5 5 0 5 5 5 22 70 15 6 13 58 56 5 5 5 50 36 83 99 5 5 5 4 33 91 74 100 87 100 100 100 100
100 100 100 100 100 11 5 0 5 26 100 100 20 100 25 11 100 22 5 5 6 72 100 100 31 5 5 3 4 5 5 5 8 6 6 12 98 100
100 100 100 100 100 16 50 27 5 9 85 8 85 97 78 100 84 5 10 33 9 5 5 4 1 0 0 0 0 0 0 0 1 5 5 4 5 6
100 100 100 100 100 75 77 94 5 4 15 18 53 42 50 93 26 6 5 5 8 14 5 5 0 0 0 0 0 0 0 0 0 0 2 5 1 90
100 100 97 99 100 100 99 98 8 17 10 5 9 57 34 72 96 88 8 5 7 0 2 4 0 0 0 0 0 0 0 0 0 0 0 0 0 0
100 100 99 100 100 92 100 88 88 1 33 27 5 15 72 94 14 65 79 43 50 1 0 17 0 0 0 0 0 0 0 0 0 0 0 0 0 0
100 97 100 100 100 47 43 81 29 36 89 63 16 27 70 90 82 93 98 95 51 0 1 0 0 1 20 100 99 82 8 4 4 1 0 0 0 0
100 100 100 100 98 100 86 100 14 19 98 89 84 51 5 0 0 3 5 20 1 0 0 0 0 0 2 5 40 53 12 5 4 0 0 0 0 1
100 100 100 100 100 51 30 26 75 24 5 4 2 2 0 0 0 0 0 2 6 26 22 0 0 0 0 0 0 0 0 0 0 0 0 0 0 0
100 100 98 98 95 99 99 63 92 1 0 0 0 0 0 0 0 0 0 0 2 0 0 0 0 0 0 0 0 0 0 0 0 0 0 0 0 0
100 100 100 100 100 100 80 44 3 5 0 2 0 0 0 0 0 0 0 0 0 0 0 0 0 0 0 0 0 0 0 0 0 3 2 4 0 0
100 100 100 95 39 22 13 5 5 3 0 0 0 0 0 0 0 0 0 0 0 0 0 0 0 0 0 0 0 0 0 2 0 0 0 14 6 0
100 100 100 100 97 5 5 7 10 0 0 0 0 5 0 0 0 0 0 0 0 0 0 0 0 0 0 0 0 0 0 0 0 0 15 2 0 0
100 100 100 100 91 5 10 76 2 3 1 4 2 0 0 0 0 0 0 0 0 0 0 0 0 0 0 0 0 0 0 0 0 0 0 26 7 1
100 100 100 100 82 5 5 0 5 5 5 8 0 0 0 0 0 0 0 0 0 0 0 0 0 0 0 0 0 0 1 0 11 0 0 8 72 57
100 100 100 99 25 5 4 17 16 4 15 1 0 0 0 0 0 0 0 0 0 0 0 0 0 0 0 0 0 0 0 0 0 50 21 98 66 94
100 100 100 43 5 11 3 6 16 23 5 4 0 0 0 0 0 0 0 0 0 0 0 0 0 0 0 7 5 0 0 0 15 100 83 100 100 100
100 100 53 5 5 12 17 12 72 100 11 2 1 0 0 0 0 0 0 0 0 0 0 0 0 0 0 0 0 0 0 88 95 55 76 87 100 100
96 97 9 82 24 100 22 26 9 93 5 5 3 0 0 0 0 0 0 0 0 0 0 0 0 0 0 0 0 0 7 100 84 31 88 100 100 100

GFSNE_prec_cloud_021.txt.gz
Cloud_Cover
0 0 0 5 17 11 5 5 5 63 6 12 40 32 62 6 5 3 1 0 0 0 0 0 0 0 0 0 2 2 0 48 100 98 100 100 100 100
0 0 4 4 1 5 2 4 2 5 59 5 7 5 5 5 5 5 5 5 5 5 5 5 5 4 5 2 0 0 4 4 5 5 41 94 70 100
0 4 5 58 88 5 5 5 5 4 96 94 93 6 5 5 2 5 2 5 5 9 5 5 5 5 3 0 4 3 1 2 5 5 5 1 27 50
0 5 18 27 75 56 5 6 100 93 100 100 99 35 73 5 5 4 1 5 5 7 63 5 0 0 0 0 1 5 5 10 98 50 5 5 3 0
1 6 93 17 33 91 100 99 100 100 90 100 36 16 60 10 8 5 28 5 29 5 6 5 5 38 75 97 100 100 100 99 5 4 100 80 11 2
12 88 59 53 100 100 84 100 100 100 100 100 6 5 69 5 5 98 72 46 97 100 100 5 5 57 72 93 23 12 68 96 53 0 3 2 1 42
25 15 80 99 100 100 100 100 100 100 100 100 13 26 66 17 38 38 85 55 67 68 100 96 95 99 34 1 0 6 2 0 0 0 0 0 0 0
5 95 100 100 100 6 99 99 22 89 14 5 4 5 5 6 63 46 65 100 32 100 100 2 0 0 0 0 0 0 0 0 0 0 0 0 0 0
66 78 100 100 42 68 100 5 16 16 4 4 6 5 58 5 80 40 98 100 100 82 97 2 0 0 0 0 0 0 0 0 0 0 0 0 0 0
100 100 56 15 66 100 45 55 6 37 6 6 5 86 53 52 95 100 100 100 100 100 41 0 0 0 0 0 0 0 0 0 0 0 0 0 0 0
100 64 13 53 100 96 94 99 95 5 42 51 63 100 93 100 80 51 100 100 94 36 21 0 0 0 0 0 0 0 0 0 0 0 0 0 0 0
100 100 100 87 100 100 99 100 22 20 58 37 100 100 100 100 100 100 100 100 84 0 4 0 0 0 0 0 0 0 0 0 0 0 0 0 0 3
99 100 100 100 100 100 96 83 19 17 45 100 100 100 100 100 100 100 100 100 24 0 2 0 0 0 0 0 0 0 0 0 0 0 0 0 0 47
100 100 100 100 100 100 100 49 54 46 100 100 100 100 100 100 100 100 100 41 1 0 0 0 0 0 0 0 0 0 0 0 0 0 0 0 0 0
100 100 100 100 100 100 100 100 98 100 98 100 100 100 100 100 100 100 100 65 5 0 0 0 0 0 0 0 0 0 0 0 0 0 0 0 0 0
100 100 100 100 100 100 100 100 100 100 100 100 100 100 100 100 100 100 100 92 4 0 0 0 0 0 0 0 0 0 0 0 0 1 5 0 0 0
100 100 100 100 100 100 100 100 100 100 100 100 100 100 100 100 100 100 94 5 0 0 0 0 0 0 0 0 0 0 0 0 0 4 0 0 0 0
100 100 100 100 100 100 100 100 100 100 100 100 100 100 100 100 100 100 18 6 3 0 0 0 0 0 0 0 0 0 0 0 0 0 0 1 0 0
100 100 100 100 100 100 100 100 100 100 100 100 100 100 100 100 100 44 5 5 5 0 0 0 0 0 0 0 0 0 0 0 0 1 1 1 5 5
100 100 100 100 100 100 95 100 100 100 100 100 100 100 100 100 96 7 12 3 5 0 0 0 0 0 0 0 0 0 0 0 0 0 2 9 95 100
100 100 100 100 100 78 100 100 100 94 100 100 100 100 100 100 70 5 6 10 0 0 0 0 0 0 0 0 0 0 0 0 0 1 90 100 100 90
100 100 100 100 100 100 100 100 100 100 100 100 100 100 100 10 25 54 6 5 2 0 0 0 0 0 0 0 0 0 0 0 0 0 41 30 45 100
100 100 100 100 100 100 88 100 100 100 100 100 100 98 17 12 14 99 19 5 5 5 5 0 0 0 0 0 0 0 0 0 0 1 5 7 5 34

GFSNE_prec_cloud_024.txt.gz
Cloud_Cover
0 0 0 5 0 3 8 45 5 10 68 11 24 5 14 6 11 4 5 13 58 100 100 100 100 100 66 5 5 5 3 0 4 5 5 40 100 100
0 0 0 4 5 87 72 6 5 5 14 16 4 4 3 0 5 13 10 79 100 100 100 100 100 87 5 5 5 5 5 5 5 0 0 1 94 100
0 0 0 1 5 13 97 61 3 3 28 49 6 5 4 0 5 26 62 35 100 100 100 100 100 98 5 5 0 0 0 0 68 4 1 5 5 42
0 0 0 2 5 62 65 34 5 5 6 0 77 100 5 0 0 5 13 100 100 100 100 100 96 5 5 5 6 7 5 30 40 82 100 82 100 100
0 5 7 11 32 98 100 96 3 5 7 5 96 4 9 5 3 38 25 100 100 100 100 63 5 5 5 4 5 68 100 100 100 96 99 100 100 100
0 5 5 5 62 100 100 92 4 5 5 13 21 4 5 38 34 92 100 100 100 100 100 100 82 4 3 0 0 0 0 70 100 61 0 0 1 98
0 0 3 12 57 100 98 13 29 5 5 30 5 4 0 46 84 100 100 100 100 100 100 100 98 84 84 82 40 7 0 0 0 0 0 0 0 0
0 0 2 0 34 100 70 16 100 13 1 5 2 5 4 5 41 96 100 100 100 100 100 100 34 54 28 53 95 16 0 0 0 0 0 0 0 0
0 0 16 2 100 99 47 95 100 16 15 97 64 4 5 8 98 100 100 100 100 100 100 100 62 28 0 5 0 0 0 0 0 0 0 0 0 0
0 0 10 52 100 100 20 99 100 99 51 48 23 41 40 84 100 10 100 100 100 100 100 100 77 3 0 0 0 0 0 0 0 0 0 0 0 0
0 1 35 80 100 99 47 76 100 100 78 54 38 14 100 100 59 100 100 100 100 100 100 100 100 6 0 0 0 0 0 0 0 0 0 0 0 0
4 1 0 86 100 97 79 100 100 100 65 56 100 88 100 74 96 100 100 100 100 100 100 92 42 6 0 0 0 0 0 0 0 0 0 0 0 3
5 5 44 100 100 98 81 100 100 100 100 100 96 100 100 100 100 100 100 100 100 100 100 98 13 18 0 0 0 0 0 0 0 0 0 0 0 26
34 9 93 100 100 100 100 100 100 100 100 98 100 100 100 100 100 100 100 100 100 100 100 99 50 5 0 0 0 0 0 0 0 0 1 4 1 1
98 100 100 100 100 100 100 100 100 100 100 100 100 100 100 100 100 100 100 100 100 100 99 94 65 5 13 0 0 0 0 0 0 0 1 5 5 5
95 100 100 100 100 100 100 100 100 100 100 100 100 100 100 100 100 100 100 100 100 100 82 24 93 55 7 0 0 0 0 0 0 0 5 1 4 5
100 100 100 100 100 100 100 100 100 100 100 100 100 100 100 100 100 100 100 100 100 100 65 74 100 88 15 0 0 0 0 0 0 0 0 4 3 5
100 100 100 100 100 100 100 100 100 100 100 100 100 100 100 100 100 100 100 100 47 100 10 5 37 67 27 5 3 0 0 0 0 0 1 5 1 26
100 100 100 100 100 99 100 100 100 100 100 98 100 95 85 100 100 100 100 100 100 79 5 5 5 67 4 0 0 0 0 0 0 1 3 0 0 58
100 100 100 100 100 100 100 100 100 100 99 66 99 98 100 100 100 100 100 100 100 100 66 34 37 19 8 5 0 0 0 0 0 0 0 0 0 30
100 100 100 100 100 100 100 100 100 100 86 100 98 100 100 100 100 100 96 100 100 91 39 55 5 5 64 4 0 0 0 0 0 0 0 0 5 5
100 100 100 100 100 100 100 100 100 100 100 100 100 100 100 100 100 77 100 100 75 100 44 5 4 5 5 0 0 0 0 0 0 0 0 0 5 70
100 100 100 100 100 100 100 100 100 100 100 100 100 100 100 14 5 99 34 37 100 99 97 4 5 3 5 0 0 0 0 0 0 0 0 0 0 5

GFSNE_prec_cloud_027.txt.gz
Cloud_Cover
0 0 0 0 5 5 42 73 45 86 98 8 10 9 50 5 5 5 29 100 100 100 100 100 100 100 50 20 5 5 5 5 4 5 5 13 9 5
0 0 0 0 1 7 15 47 8 10 42 43 8 24 16 8 5 5 4 100 100 100 100 100 100 100 100 78 4 5 5 3 4 4 2 1 2 4
0 0 0 0 5 4 43 1 1 3 96 15 6 6 2 26 2 5 4 100 100 100 100 100 100 100 100 100 32 0 0 2 5 5 5 67 99 90
0 0 0 0 0 5 5 0 3 4 44 100 26 5 1 5 3 5 17 100 100 100 100 100 100 100 96 78 50 0 0 0 0 0 0 9 100 100
0 0 0 2 0 0 0 0 5 5 9 46 4 5 5 5 70 9 8 5 100 100 100 100 97 100 100 100 21 1 0 0 0 0 0 0 13 85
0 0 0 0 2 1 5 0 0 0 6 48 55 4 3 27 26 57 87 72 100 100 100 100 100 100 100 100 89 2 1 0 0 0 0 0 0 4
0 0 0 0 0 0 0 0 0 0 19 5 68 4 4 60 100 78 85 49 100 100 100 100 100 100 100 99 93 64 4 0 0 0 0 0 0 0
0 0 0 0 5 0 0 0 0 3 5 5 51 11 5 0 0 8 100 5 100 100 100 100 100 100 100 100 100 96 22 0 0 0 0 0 0 0
0 0 0 0 0 0 0 0 0 5 6 7 33 32 37 5 0 4 94 9 99 98 100 100 100 100 90 79 5 5 5 0 0 0 0 0 0 0
5 0 0 0 1 0 0 0 5 5 28 57 100 100 34 17 5 4 78 100 95 100 100 100 100 100 100 100 64 18 5 0 0 0 0 0 0 0
0 1 0 0 1 0 0 34 100 89 100 100 100 100 86 37 10 5 83 100 100 100 100 100 100 100 70 100 95 42 97 4 0 0 0 0 0 0
0 4 0 0 0 42 41 100 100 100 100 100 100 100 100 100 99 98 99 100 100 100 100 100 100 100 100 99 78 100 35 5 0 0 0 0 0 0
5 1 0 0 4 35 100 100 100 100 100 100 100 100 100 100 99 100 100 100 100 100 100 91 100 20 100 44 59 26 17 3 0 0 0 0 0 0
5 5 3 2 7 98 100 100 100 100 100 100 100 100 100 100 100 100 100 100 100 100 100 19 51 18 58 10 13 91 2 1 0 0 0 0 0 0
18 16 100 100 100 100 100 100 100 100 100 100 100 100 100 100 100 100 100 100 100 100 100 49 10 9 47 38 7 8 24 5 0 0 0 0 0 0
18 45 84 100 100 100 100 100 100 100 100 100 100 100 100 100 100 100 100 100 100 100 100 100 5 20 28 36 58 15 16 11 4 0 0 0 0 0
98 100 98 100 100 100 100 100 100 100 100 100 100 100 100 100 100 100 95 100 100 100 100 100 9 5 22 22 5 5 5 40 11 0 0 0 0 0
63 100 100 100 100 100 100 100 100 100 100 100 100 100 100 100 100 100 100 100 100 100 100 100 80 32 10 40 6 5 5 9 55 0 0 0 0 0
100 100 100 100 100 100 100 100 100 100 100 100 100 100 98 100 100 100 100 100 100 100 100 96 15 12 5 6 35 78 5 4 5 1 0 0 0 0
82 100 100 100 100 100 100 100 100 100 100 100 100 100 100 96 100 100 100 100 100 100 100 100 9 5 5 5 5 5 5 5 2 2 0 0 0 0
100 100 100 100 100 100 100 100 100 100 100 100 100 100 100 100 100 100 100 100 100 100 100 100 20 5 5 11 3 2 5 0 0 0 0 0 0 0
100 100 100 100 100 100 100 100 100 100 100 100 100 100 100 100 100 100 100 100 100 100 100 90 5 4 5 5 4 2 0 0 3 1 0 0 0 0
100 100 100 100 100 100 100 100 100 100 100 100 100 100 100 100 100 100 100 100 100 100 94 61 37 6 4 5 5 5 5 3 0 0 0 0 0 0

GFSNE_prec_cloud_030.txt.gz
Cloud_Cover
0 0 0 0 0 0 0 0 0 2 65 100 57 96 100 100 100 35 54 4 75 95 100 100 100 100 74 92 77 35 100 99 5 7 0 4 14 95
0 0 0 0 0 0 0 0 0 0 10 100 100 46 61 100 99 6 5 5 4 57 100 100 100 100 100 99 83 98 100 96 5 0 0 0 0 0
0 0 0 0 0 0 0 0 0 0 4 74 39 8 5 56 97 27 13 31 5 2 44 100 100 100 100 52 16 88 67 99 5 5 0 0 0 0
0 0 0 0 0 0 0 0 0 0 0 0 0 92 5 75 88 68 25 5 31 32 100 100 100 100 100 86 5 67 31 5 5 4 0 0 0 0
0 0 0 0 0 0 0 0 0 0 0 0 0 41 5 49 16 47 23 5 95 100 100 100 100 100 100 83 74 80 50 73 5 5 1 0 0 0
0 0 0 0 0 0 0 0 1 0 0 0 0 4 0 10 5 9 41 4 22 96 100 100 100 100 100 100 100 80 34 5 3 5 0 0 0 0
0 0 0 0 0 0 0 0 0 0 0 0 0 0 2 25 34 79 100 26 97 94 100 100 100 100 100 100 100 100 85 94 25 5 0 0 0 0
0 0 0 0 0 0 0 0 0 0 0 0 0 0 76 20 58 85 34 58 100 100 96 80 94 100 100 100 100 100 100 100 78 5 3 0 0 0
0 0 0 0 0 0 0 0 0 0 0 0 24 90 74 100 98 54 57 53 99 90 62 90 93 100 100 100 100 41 88 48 5 0 4 0 0 0
0 0 0 0 0 0 0 0 0 0 1 100 98 30 16 26 100 100 35 62 96 92 100 100 100 100 100 100 100 100 6 21 27 5 0 0 0 0
0 0 0 0 0 0 0 0 100 57 100 100 25 100 100 62 99 80 82 100 100 99 96 78 100 100 100 100 99 100 78 6 38 6 0 0 0 0
0 0 0 0 5 0 5 60 100 100 100 100 100 100 100 100 99 89 99 96 99 100 100 100 100 100 100 100 100 100 73 67 82 20 3 0 0 0
0 0 1 4 99 5 41 100 100 100 100 100 100 100 100 100 100 100 100 100 96 100 100 100 100 100 100 100 73 79 100 89 28 61 5 0 0 0
12 0 2 8 100 92 26 100 100 100 100 100 100 100 100 100 100 100 100 100 73 100 100 99 100 100 100 100 69 5 80 11 5 17 4 0 0 0
96 74 54 94 100 100 61 100 100 100 100 100 100 100 100 100 100 100 100 100 98 100 100 100 100 100 100 100 15 7 29 14 34 27 5 0 0 0
0 7 77 85 100 100 100 100 100 100 100 100 98 100 100 100 100 100 100 100 100 100 100 100 100 100 100 100 93 5 5 21 5 47 4 0 0 0
73 66 52 66 92 67 100 100 100 100 100 98 98 100 100 100 100 100 100 100 100 100 100 100 100 100 100 96 49 16 26 10 3 32 5 0 0 0
10 40 75 97 98 100 65 80 100 100 100 100 100 100 100 100 100 100 100 100 100 100 100 100 100 100 100 87 100 100 17 4 1 4 3 4 0 0
1 33 38 75 100 91 100 100 100 100 100 100 100 100 100 100 100 100 100 100 100 100 100 100 100 100 100 37 5 9 5 3 4 0 1 4 1 0
56 71 100 100 100 100 100 94 94 100 100 100 100 100 100 100 100 100 100 100 100 100 100 100 100 100 100 46 70 100 10 5 4 0 1 4 0 0
94 100 99 74 90 100 100 100 100 100 100 100 100 100 100 100 100 100 100 100 100 100 100 100 100 100 99 70 100 60 73 13 5 4 0 3 0 0
99 93 88 89 88 64 80 85 100 100 100 100 100 100 100 100 100 100 100 100 100 100 100 100 100 100 100 100 91 87 6 5 4 4 1 2 0 0
8 25 28 71 60 97 100 100 100 100 100 100 100 100 100 100 100 100 100 100 100 100 100 100 100 100 100 100 100 18 19 17 4 4 0 5 2 0

GFSNE_prec_cloud_033.txt.gz
Cloud_Cover
0 0 0 0 2 0 0 0 0 0 0 0 41 80 10 37 76 28 100 100 100 97 91 100 100 25 100 98 100 100 100 100 100 13 13 31 0 0
0 0 0 0 1 0 0 0 0 0 0 0 0 0 3 23 22 51 100 100 100 93 92 100 89 26 12 100 100 100 100 100 100 93 83 64 0 0
0 0 0 0 0 0 0 0 0 2 0 0 0 0 0 2 74 39 100 100 87 100 100 100 70 58 88 46 100 100 100 100 100 100 100 6 1 0
0 0 0 0 0 0 0 0 0 0 0 3 0 0 0 0 3 12 94 49 100 100 100 95 100 98 12 5 88 100 100 100 49 100 49 5 5 0
0 0 0 0 0 0 0 0 0 0 0 0 0 0 0 0 5 9 47 62 8 49 96 73 100 100 15 25 88 100 100 100 97 61 82 5 5 0
0 0 0 0 0 0 0 0 0 0 0 0 0 0 0 0 0 76 71 100 98 100 100 99 38 45 45 9 70 98 100 100 92 5 5 5 7 0
0 0 0 0 0 0 0 0 0 0 0 0 0 0 0 0 93 100 100 100 100 100 100 98 100 100 100 100 96 100 100 100 100 56 25 42 5 5
0 0 0 0 0 0 0 0 0 0 0 0 0 0 2 99 100 100 100 83 99 78 99 98 99 100 100 100 100 100 100 100 100 46 5 8 5 1
0 0 0 0 0 0 0 0 0 0 1 78 100 93 100 40 99 100 100 100 35 40 94 100 93 100 99 98 100 100 100 100 97 64 6 5 1 0
0 0 0 0 0 0 3 3 2 0 78 100 100 100 98 100 35 94 100 100 100 92 66 68 93 100 100 99 100 100 100 100 73 82 39 4 5 3
1 4 5 2 0 0 0 28 18 6 99 100 99 67 7 17 100 100 100 90 100 100 100 100 98 99 100 100 100 100 100 6 47 24 5 5 5 5
1 3 3 2 7 6 4 4 100 100 100 99 94 100 100 100 70 26 53 24 95 100 100 93 100 99 100 100 100 100 69 40 50 19 50 7 12 5
12 3 9 25 37 86 100 89 60 98 100 100 44 77 100 100 92 63 82 75 46 100 100 100 100 100 100 100 100 100 100 82 83 61 31 50 7 54
84 100 88 71 69 74 82 22 74 100 100 100 100 99 100 100 94 89 94 51 90 100 100 100 100 100 100 100 100 100 100 100 91 98 7 7 10 6
0 2 28 32 98 100 100 100 100 99 88 100 100 100 81 51 95 69 68 66 100 98 100 100 100 100 100 100 100 100 100 100 95 74 13 5 36 11
72 45 6 32 100 99 97 96 100 100 100 100 100 100 100 100 97 92 100 100 100 100 100 100 100 100 100 100 100 100 100 100 100 100 98 5 5 91
57 58 36 85 79 96 93 99 60 83 100 100 100 100 100 100 100 100 100 100 100 100 100 100 100 100 100 100 100 100 100 100 100 100 100 36 54 64
52 20 7 12 48 81 100 100 96 100 100 100 100 100 100 100 100 100 100 100 100 100 100 100 100 100 100 100 100 100 100 100 100 100 72 35 9 53
22 17 72 98 98 98 100 100 100 87 29 100 95 100 100 100 100 100 100 100 100 100 100 100 100 100 100 100 100 100 100 100 100 100 92 23 5 5
32 25 29 17 7 32 50 68 74 72 86 100 100 98 94 100 100 100 100 100 100 100 100 100 100 100 100 100 100 100 100 100 100 64 86 6 5 5
39 49 44 58 76 80 46 30 58 92 97 76 18 66 100 100 100 100 100 100 100 100 100 100 100 100 100 100 100 100 100 100 100 34 40 5 5 8
18 30 22 26 40 27 22 27 0 6 16 94 100 100 99 100 100 100 100 100 100 100 100 100 100 100 100 100 100 100 100 100 99 57 28 14 44 5
36 0 17 28 31 29 33 53 26 12 26 99 100 100 100 100 100 100 100 100 100 100 100 100 100 100 100 100 100 100 100 100 100 88 92 38 49 4

GFSNE_prec_cloud_036.txt.gz
Cloud_Cover
0 0 0 0 3 0 0 0 0 0 0 0 0 0 0 0 0 15 15 100 7 100 100 100 100 100 100 99 27 6 6 5 93 100 100 100 100 97
0 0 0 0 0 0 0 0 0 0 0 0 0 0 0 0 0 2 16 65 5 95 64 93 100 100 100 95 6 5 60 7 65 83 100 96 100 100
0 0 0 0 0 0 0 0 0 0 0 0 0 0 0 0 0 0 3 2 5 14 16 6 89 100 100 99 52 10 5 100 98 30 100 100 100 100
0 0 0 0 0 0 0 0 0 0 0 0 0 0 0 0 0 0 0 1 84 100 100 98 55 100 100 74 61 67 98 5 96 100 100 93 100 100
0 0 0 0 0 0 0 0 0 0 0 0 0 0 0 0 0 0 0 99 6 55 63 79 96 100 100 100 86 53 27 5 99 100 98 34 42 99
0 0 0 0 0 0 0 0 0 0 0 0 0 0 0 2 0 0 4 60 4 36 86 100 100 100 100 100 89 99 14 5 8 83 5 5 92 100
0 0 0 0 0 0 0 0 0 0 4 5 95 80 99 45 21 7 5 5 92 82 74 100 100 100 99 100 100 100 53 84 19 97 99 26 7 81
0 0 0 0 0 0 0 0 0 3 4 93 100 82 100 100 100 57 5 99 100 100 100 99 100 100 100 100 100 100 100 100 100 100 100 100 53 93
0 0 0 0 0 0 0 0 0 1 5 5 72 100 63 66 90 12 87 100 100 100 91 96 23 100 100 100 100 100 100 100 100 100 100 100 100 18
0 0 0 0 0 0 0 3 3 5 5 5 10 86 90 14 8 7 16 100 100 97 93 100 98 70 100 100 100 100 100 100 100 100 100 100 100 61
0 0 0 2 5 5 5 5 8 2 10 28 86 9 30 86 70 55 80 96 70 100 100 100 77 98 98 100 97 100 100 100 100 100 100 100 100 32
0 5 29 72 100 97 93 48 43 17 43 7 5 5 5 96 10 29 8 51 97 66 92 100 71 98 90 100 100 100 100 100 100 100 100 100 100 28
28 12 1 11 31 53 82 100 100 100 100 100 100 100 100 52 62 91 65 91 100 100 43 100 100 100 100 100 100 100 100 100 100 100 100 100 100 56
100 96 100 83 16 15 85 93 100 100 100 100 100 99 100 98 64 89 92 100 100 100 92 99 100 100 100 100 100 100 100 100 98 100 100 100 100 100
27 84 91 10 13 99 98 100 100 100 100 100 100 100 100 100 100 100 100 100 99 100 100 100 100 100 100 100 100 100 100 100 100 100 100 100 100 100
78 40 36 91 96 96 59 83 97 100 100 92 99 84 100 100 100 100 100 100 100 100 100 100 98 100 100 100 100 100 100 100 100 100 94 100 100 100
100 100 94 71 58 58 62 75 99 97 92 100 99 100 100 100 100 100 100 100 100 100 100 100 100 100 100 100 100 100 100 100 100 100 100 95 100 100
91 68 41 40 47 43 66 86 96 100 100 99 100 100 100 100 100 100 100 100 100 100 100 100 100 100 100 100 100 100 100 100 100 100 100 100 100 100
58 39 9 37 65 24 61 28 10 8 3 8 2 1 24 84 99 43 100 100 100 100 100 100 100 100 100 100 100 100 100 100 100 100 100 100 100 100
26 33 46 74 88 68 31 24 39 24 19 34 37 30 85 100 78 63 38 78 100 100 100 100 100 100 100 100 100 100 100 100 100 100 100 100 100 100
8 35 28 16 5 5 18 32 31 25 39 16 50 47 13 8 72 91 100 94 100 100 100 100 100 100 100 100 100 100 100 100 100 100 100 100 100 100
12 13 5 18 27 28 34 34 26 26 21 26 22 15 32 69 68 25 81 100 100 100 100 100 100 100 100 100 100 100 100 100 100 100 100 100 100 100
100 100 100 86 61 46 52 65 57 41 16 17 12 24 60 95 100 99 98 100 100 100 100 100 100 100 100 100 100 100 100 100 100 100 100 100 100 100

GFSNE_prec_cloud_042.txt.gz
Cloud_Cover
0 0 0 0 0 0 0 0 0 0 0 0 0 0 0 0 0 0 0 0 0 32 55 50 87 100 100 100 100 100 100 100 100 100 100 100 100 97
0 0 0 0 0 0 0 0 0 0 0 0 0 3 5 4 3 0 0 0 0 0 46 100 100 100 100 100 100 95 99 100 100 100 100 100 100 100
0 0 0 0 0 0 0 0 0 0 0 0 0 5 45 96 9 4 0 0 2 9 89 83 100 100 100 100 100 100 100 100 100 100 100 100 100 100
0 0 0 0 0 0 0 0 0 0 0 0 0 0 4 99 100 100 94 12 69 89 80 97 100 100 100 100 100 91 87 13 86 100 100 98 100 100
0 0 0 0 0 0 0 0 0 0 0 0 0 0 0 5 28 85 93 97 74 100 100 94 100 94 82 26 99 13 100 59 77 58 35 87 100 100
0 0 2 0 0 0 0 0 0 0 0 0 0 0 0 0 8 7 62 78 89 67 48 11 100 100 100 86 56 24 59 5 5 14 100 100 86 100
0 0 5 0 0 0 0 0 0 0 0 0 0 0 4 4 0 0 5 6 68 14 42 86 96 100 100 100 94 99 100 97 88 100 62 100 100 78
0 0 3 0 1 0 0 0 0 0 0 0 0 0 0 0 5 24 7 5 21 98 100 100 100 100 100 76 100 100 100 100 100 100 88 100 100 100
5 5 0 0 1 0 10 21 13 0 0 0 0 0 2 5 2 5 12 74 30 99 100 98 100 100 100 100 100 91 100 100 100 100 100 100 100 100
11 4 0 0 0 1 5 5 1 0 7 2 5 5 57 44 70 90 94 76 97 98 99 100 100 100 99 100 100 100 98 100 100 98 69 99 100 100
0 0 0 0 0 5 5 5 85 74 25 5 3 2 1 1 3 81 100 100 100 44 68 100 68 93 100 94 86 100 100 100 100 97 100 100 100 100
0 0 1 1 5 11 6 6 60 87 81 85 98 100 100 100 100 100 100 100 100 96 4 61 100 72 100 100 100 100 100 100 100 100 100 100 100 100
40 22 17 14 32 62 89 100 100 100 100 100 100 100 97 99 85 90 72 91 100 100 46 100 100 100 100 100 100 100 100 100 100 100 100 100 100 100
16 15 2 54 84 100 100 100 100 100 100 100 100 100 100 100 100 100 100 100 100 83 71 100 100 100 100 100 100 100 100 100 100 100 100 100 100 100
0 4 74 98 100 100 100 100 100 100 100 100 100 100 100 98 100 100 100 100 88 99 99 100 100 100 100 100 100 100 100 100 100 100 100 100 100 100
64 100 100 100 100 100 100 100 100 100 100 100 100 100 100 94 18 2 0 1 22 5 0 11 57 94 100 100 100 100 100 100 100 100 100 100 100 100
94 100 100 100 100 100 100 100 100 100 98 98 85 80 98 57 5 18 90 100 88 81 7 0 0 60 95 100 100 100 100 100 100 100 100 100 100 100
100 100 100 100 100 100 100 82 60 23 18 17 5 53 91 75 70 20 20 63 97 86 78 43 49 78 96 81 97 100 100 100 100 100 100 100 100 100
100 100 100 100 99 40 28 5 5 5 15 24 19 60 51 68 72 100 91 92 100 100 100 100 100 100 100 100 100 100 100 100 100 100 100 100 100 100
100 100 97 44 38 27 24 34 33 42 50 48 41 24 26 25 8 12 64 73 96 100 100 100 100 100 100 100 100 100 100 100 100 100 100 100 100 100
95 80 78 76 92 98 94 92 96 100 100 100 61 31 6 19 73 99 100 100 100 73 100 100 96 100 100 100 100 100 100 100 100 100 100 100 100 100
100 100 100 100 100 100 100 100 100 100 100 100 66 79 100 100 72 47 100 100 100 100 100 83 31 91 31 95 100 100 100 96 100 100 100 100 100 100
100 100 100 100 100 100 100 100 100 100 100 100 100 100 100 100 93 49 66 100 96 96 100 63 19 41 17 6 33 89 100 99 97 100 100 100 100 100

GFSNE_prec_cloud_045.txt.gz
Cloud_Cover
0 0 0 0 0 0 0 0 0 0 0 0 0 5 8 1 2 3 0 0 0 7 99 100 100 100 100 86 99 82 68 100 92 75 83 99 100 100
0 0 0 0 0 0 0 0 0 0 0 0 0 0 32 92 100 69 29 0 5 36 99 53 73 100 100 96 100 96 48 98 97 6 9 100 100 100
0 0 0 0 0 0 0 0 0 0 0 0 0 0 0 16 100 100 100 100 73 100 100 100 75 100 100 52 99 98 63 10 17 100 100 96 100 100
0 0 0 0 0 0 0 0 0 0 0 0 0 0 0 0 1 34 33 10 17 11 6 3 13 100 50 45 28 38 39 66 100 100 100 100 88 98
0 0 0 0 0 0 0 0 0 0 0 0 0 0 0 0 0 2 5 5 15 44 6 5 24 81 15 46 76 36 85 92 100 100 100 100 100 99
0 0 0 0 5 3 0 0 2 0 0 0 0 0 0 0 0 1 5 4 5 5 27 29 25 24 71 51 82 77 77 98 87 100 100 100 100 100
4 0 0 0 5 0 0 0 5 3 0 0 0 0 0 0 0 0 1 6 88 44 7 99 97 91 100 100 100 100 100 100 100 100 100 100 95 100
5 0 0 2 10 4 0 0 5 7 4 0 0 0 0 0 3 2 6 0 1 73 5 100 100 100 98 100 100 100 100 100 100 100 100 100 100 100
1 0 0 37 5 3 12 27 29 60 6 2 0 0 0 24 41 68 59 41 30 37 55 8 82 74 89 100 100 100 100 100 100 100 100 100 100 100
5 0 0 0 5 0 0 0 5 5 48 14 6 5 3 4 27 46 75 100 95 79 99 84 15 97 100 73 28 37 99 92 100 100 100 100 100 100
5 0 0 4 5 2 0 0 0 5 5 5 5 3 0 5 68 88 100 100 100 95 95 100 58 85 93 99 48 5 5 10 43 100 100 100 100 100
5 4 0 2 0 5 1 0 7 10 10 30 82 59 51 48 98 100 100 100 100 100 62 100 100 99 81 5 10 43 89 93 96 100 100 100 100 100
5 5 5 2 24 40 58 5 28 22 34 55 72 96 95 87 100 100 85 100 100 100 64 100 100 100 100 100 96 100 86 100 100 35 74 100 100 100
21 22 15 4 48 74 58 30 51 92 90 100 100 100 100 100 100 100 100 100 93 89 86 82 51 82 100 86 73 5 75 100 100 100 99 100 100 100
44 42 8 79 100 72 84 96 100 100 100 100 100 100 100 100 100 100 56 97 18 8 5 23 16 2 45 94 97 99 91 95 100 100 100 100 100 100
90 30 49 76 100 85 100 100 100 100 100 100 100 100 96 66 15 0 4 80 47 10 5 5 5 4 7 0 15 25 35 95 100 100 100 100 100 100
71 95 100 100 100 100 100 100 100 100 100 100 73 21 6 5 5 0 4 49 32 5 5 5 5 4 29 83 69 98 100 100 86 98 100 100 100 100
100 100 100 100 100 100 100 100 100 100 44 0 0 0 2 5 5 5 5 6 18 13 5 23 17 88 90 8 60 99 100 100 96 99 100 100 100 100
100 100 100 100 100 100 100 100 64 0 3 0 0 0 0 0 3 7 23 16 14 7 5 12 67 100 100 100 74 92 100 100 100 100 100 100 100 100
100 100 100 100 100 97 37 14 18 55 88 96 59 30 22 25 36 55 66 97 100 15 5 2 95 100 100 100 100 100 100 100 100 100 100 100 100 100
71 80 100 100 98 94 100 98 100 100 100 99 100 80 100 100 100 84 100 100 90 52 77 100 99 40 83 40 97 100 100 100 100 100 100 100 100 100
99 100 79 70 86 90 100 100 100 100 100 100 100 100 100 100 100 100 100 100 100 100 99 57 52 82 58 39 91 100 100 99 100 100 100 100 100 100
100 92 77 67 83 100 100 100 100 100 98 100 100 100 100 100 100 100 100 100 100 96 99 19 37 26 0 1 0 12 6 97 100 100 100 100 100 100